| time (UTC) | temp C | wind direction | speed KPH | gust KPH | rain 1hr cm | rain 24hr cm | rain mn cm | humidity % | barometer mb |
| 20260506224528 | 21 | 180 | 3.2 | 9.7 | 0.00 | 0.00 | 0.00 | 56 | 1016.5 |
| 20260506223021 | 20 | 238 | 1.6 | 6.4 | 0.00 | 0.00 | 0.00 | 58 | 1016.9 |
| 20260506221524 | 20 | 230 | 3.2 | 11.3 | 0.00 | 0.00 | 0.00 | 57 | 1017.3 |
| 20260506220033 | 21 | 180 | 3.2 | 11.3 | 0.00 | 0.00 | 0.00 | 57 | 1017.5 |
| 20260506214527 | 20 | 237 | 4.8 | 11.3 | 0.00 | 0.00 | 0.00 | 59 | 1017.8 |
| 20260506213014 | 20 | 95 | 3.2 | 9.7 | 0.00 | 0.00 | 0.00 | 59 | 1017.9 |
| 20260506211520 | 21 | 49 | 1.6 | 6.4 | 0.00 | 0.00 | 0.00 | 59 | 1018.2 |
| 20260506210026 | 20 | 99 | 1.6 | 12.9 | 0.00 | 0.00 | 0.00 | 61 | 1018.3 |
| 20260506204530 | 19 | 140 | 3.2 | 9.7 | 0.00 | 0.00 | 0.00 | 64 | 1018.3 |
| 20260506203028 | 19 | 82 | 3.2 | 12.9 | 0.00 | 0.00 | 0.00 | 64 | 1018.4 |
| 20260506201519 | 19 | 155 | 3.2 | 8.0 | 0.00 | 0.00 | 0.00 | 65 | 1018.4 |
| 20260506200029 | 18 | 211 | 3.2 | 9.7 | 0.00 | 0.00 | 0.00 | 65 | 1018.6 |
| 20260506194533 | 18 | 360 | 3.2 | 11.3 | 0.00 | 0.00 | 0.00 | 62 | 1018.7 |
| 20260506193026 | 18 | 174 | 4.8 | 11.3 | 0.00 | 0.00 | 0.00 | 61 | 1018.7 |
| 20260506191515 | 18 | 185 | 3.2 | 12.9 | 0.00 | 0.00 | 0.00 | 63 | 1018.8 |
| 20260506190022 | 18 | 159 | 3.2 | 11.3 | 0.00 | 0.00 | 0.00 | 64 | 1018.8 |
| 20260506184503 | 18 | 183 | 1.6 | 8.0 | 0.00 | 0.00 | 0.00 | 65 | 1018.9 |
| 20260506183007 | 18 | 142 | 1.6 | 8.0 | 0.00 | 0.00 | 0.00 | 67 | 1018.9 |
| 20260506181514 | 18 | 61 | 3.2 | 11.3 | 0.00 | 0.00 | 0.00 | 68 | 1019.1 |
| 20260506180018 | 18 | 126 | 1.6 | 6.4 | 0.00 | 0.00 | 0.00 | 70 | 1019.2 |
| 20260506174521 | 17 | 173 | 3.2 | 9.7 | 0.00 | 0.00 | 0.00 | 71 | 1019.2 |
| 20260506173008 | 17 | 152 | 3.2 | 8.0 | 0.00 | 0.00 | 0.00 | 74 | 1019.1 |
| 20260506171515 | 17 | 179 | 4.8 | 11.3 | 0.00 | 0.00 | 0.00 | 73 | 1019.2 |
| 20260506170016 | 17 | 162 | 3.2 | 9.7 | 0.00 | 0.00 | 0.00 | 74 | 1019.1 |
| 20260506164521 | 17 | 153 | 1.6 | 9.7 | 0.00 | 0.00 | 0.00 | 74 | 1018.8 |
| 20260506163024 | 16 | 189 | 4.8 | 8.0 | 0.00 | 0.00 | 0.00 | 74 | 1018.8 |
| 20260506161510 | 16 | 163 | 1.6 | 9.7 | 0.00 | 0.00 | 0.00 | 73 | 1018.8 |
| 20260506160019 | 16 | 209 | 3.2 | 8.0 | 0.00 | 0.00 | 0.00 | 74 | 1018.8 |
| 20260506154529 | 16 | 177 | 1.6 | 6.4 | 0.00 | 0.00 | 0.00 | 76 | 1018.9 |
| 20260506153023 | 16 | 142 | 3.2 | 6.4 | 0.00 | 0.00 | 0.00 | 78 | 1018.8 |
| 20260506151508 | 15 | 215 | 0.0 | 3.2 | 0.00 | 0.00 | 0.00 | 80 | 1018.8 |
| 20260506150013 | 14 | 360 | 1.6 | 3.2 | 0.00 | 0.00 | 0.00 | 82 | 1018.7 |
| 20260506144519 | 14 | 339 | 0.0 | 3.2 | 0.00 | 0.00 | 0.00 | 83 | 1018.6 |
| 20260506143021 | 13 | 360 | 0.0 | 3.2 | 0.00 | 0.00 | 0.00 | 83 | 1018.6 |
| 20260506141527 | 12 | 253 | 0.0 | 3.2 | 0.00 | 0.00 | 0.00 | 84 | 1018.5 |
| 20260506140015 | 12 | 295 | 0.0 | 3.2 | 0.00 | 0.00 | 0.00 | 85 | 1018.3 |
| 20260506134523 | 11 | 295 | 0.0 | 3.2 | 0.00 | 0.00 | 0.00 | 86 | 1018.1 |
| 20260506133022 | 11 | 311 | 0.0 | 3.2 | 0.00 | 0.00 | 0.00 | 86 | 1018.0 |
| 20260506131543 | 11 | 345 | 0.0 | 3.2 | 0.00 | 0.00 | 0.00 | 87 | 1017.9 |
| 20260506130036 | 11 | 289 | 0.0 | 3.2 | 0.00 | 0.00 | 0.00 | 87 | 1017.9 |
| 20260506124516 | 11 | 281 | 0.0 | 3.2 | 0.00 | 0.00 | 0.00 | 87 | 1017.8 |
| 20260506123021 | 11 | 292 | 0.0 | 3.2 | 0.00 | 0.00 | 0.00 | 87 | 1017.7 |
| 20260506121527 | 11 | 294 | 0.0 | 3.2 | 0.00 | 0.00 | 0.00 | 87 | 1017.7 |
| 20260506120028 | 11 | 271 | 0.0 | 3.2 | 0.00 | 0.00 | 0.00 | 86 | 1017.8 |
| 20260506114526 | 11 | 290 | 0.0 | 3.2 | 0.00 | 0.00 | 0.00 | 86 | 1017.8 |
| 20260506113022 | 11 | 276 | 0.0 | 3.2 | 0.00 | 0.00 | 0.00 | 86 | 1017.8 |
| 20260506111522 | 11 | 269 | 0.0 | 3.2 | 0.00 | 0.00 | 0.00 | 86 | 1017.7 |
| 20260506110024 | 11 | 277 | 0.0 | 3.2 | 0.00 | 0.00 | 0.00 | 86 | 1017.6 |
| 20260506104526 | 12 | 307 | 1.6 | 3.2 | 0.00 | 0.00 | 0.00 | 86 | 1017.4 |
| 20260506103037 | 12 | 267 | 0.0 | 3.2 | 0.00 | 0.00 | 0.00 | 86 | 1017.3 |
| 20260506101528 | 12 | 257 | 0.0 | 3.2 | 0.00 | 0.00 | 0.00 | 86 | 1017.3 |
| 20260506100006 | 12 | 271 | 0.0 | 3.2 | 0.00 | 0.00 | 0.00 | 86 | 1017.4 |
| 20260506094510 | 12 | 284 | 0.0 | 3.2 | 0.00 | 0.00 | 0.00 | 85 | 1017.3 |
| 20260506093016 | 13 | 37 | 0.0 | 3.2 | 0.00 | 0.00 | 0.00 | 86 | 1017.3 |
| 20260506091520 | 13 | 17 | 0.0 | 0.0 | 0.00 | 0.00 | 0.00 | 86 | 1017.3 |
| 20260506090023 | 13 | 17 | 0.0 | 1.6 | 0.00 | 0.00 | 0.00 | 85 | 1017.5 |
| 20260506084508 | 13 | 26 | 0.0 | 3.2 | 0.00 | 0.00 | 0.00 | 84 | 1017.6 |
| 20260506083011 | 13 | 32 | 0.0 | 3.2 | 0.00 | 0.00 | 0.00 | 84 | 1017.7 |
| 20260506081516 | 14 | 75 | 0.0 | 3.2 | 0.00 | 0.00 | 0.00 | 84 | 1017.7 |
| 20260506073010 | 14 | 75 | 0.0 | 1.6 | 0.00 | 0.00 | 0.00 | 83 | 1017.5 |
| 20260506071513 | 14 | 68 | 0.0 | 3.2 | 0.00 | 0.00 | 0.00 | 83 | 1017.3 |
| 20260506061527 | 15 | 67 | 1.6 | 3.2 | 0.00 | 0.00 | 0.00 | 80 | 1016.8 |
| 20260506044522 | 16 | 67 | 0.0 | 3.2 | 0.00 | 0.00 | 0.00 | 75 | 1015.7 |
| 20260506043023 | 16 | 182 | 1.6 | 4.8 | 0.00 | 0.00 | 0.00 | 72 | 1015.6 |
| 20260506041526 | 16 | 104 | 0.0 | 1.6 | 0.00 | 0.00 | 0.00 | 72 | 1015.4 |
| 20260506040012 | 16 | 68 | 0.0 | 3.2 | 0.00 | 0.00 | 0.00 | 71 | 1015.0 |
| 20260506034518 | 16 | 59 | 0.0 | 3.2 | 0.00 | 0.00 | 0.00 | 71 | 1014.6 |
| 20260506033021 | 17 | 24 | 0.0 | 3.2 | 0.00 | 0.00 | 0.00 | 69 | 1014.4 |
| 20260506031526 | 17 | 97 | 0.0 | 3.2 | 0.00 | 0.00 | 0.00 | 70 | 1014.2 |
| 20260506030034 | 17 | 76 | 1.6 | 3.2 | 0.00 | 0.00 | 0.00 | 69 | 1013.9 |
| 20260506024532 | 17 | 176 | 0.0 | 3.2 | 0.00 | 0.00 | 0.00 | 69 | 1013.9 |
| 20260506023022 | 17 | 181 | 1.6 | 3.2 | 0.00 | 0.00 | 0.00 | 69 | 1013.7 |
| 20260506021524 | 17 | 65 | 0.0 | 3.2 | 0.00 | 0.00 | 0.00 | 68 | 1013.7 |
| 20260506020010 | 17 | 162 | 0.0 | 3.2 | 0.00 | 0.00 | 0.00 | 67 | 1013.7 |
| 20260506014519 | 18 | 84 | 1.6 | 3.2 | 0.00 | 0.00 | 0.00 | 65 | 1013.6 |
| 20260506013018 | 18 | 360 | 0.0 | 3.2 | 0.00 | 0.00 | 0.00 | 64 | 1013.5 |
| 20260506011503 | 18 | 360 | 0.0 | 4.8 | 0.00 | 0.00 | 0.00 | 63 | 1013.4 |
| 20260506010007 | 19 | 77 | 1.6 | 8.0 | 0.00 | 0.00 | 0.00 | 62 | 1013.5 |
| 20260506004512 | 18 | 68 | 1.6 | 4.8 | 0.00 | 0.00 | 0.00 | 63 | 1013.4 |
| 20260506003017 | 18 | 149 | 3.2 | 11.3 | 0.00 | 0.00 | 0.00 | 64 | 1013.4 |
| 20260506001504 | 18 | 173 | 1.6 | 9.7 | 0.00 | 0.00 | 0.00 | 63 | 1013.4 |
| 20260506000007 | 19 | 360 | 1.6 | 14.5 | 0.00 | 0.00 | 0.00 | 61 | 1013.1 |
| 20260505234508 | 20 | 163 | 1.6 | 4.8 | 0.00 | 0.00 | 0.00 | 58 | 1013.0 |
| 20260505233017 | 20 | 360 | 4.8 | 12.9 | 0.00 | 0.00 | 0.00 | 56 | 1012.9 |
| 20260505231520 | 20 | 360 | 3.2 | 11.3 | 0.00 | 0.00 | 0.00 | 54 | 1012.9 |
| 20260505230011 | 20 | 266 | 3.2 | 11.3 | 0.00 | 0.00 | 0.00 | 55 | 1012.9 |